Regional Weather Roundup
Issued by NWS

Home | Current Version | Previous Version | Graphics & Text | Print | Product List | Glossary On
Versions: 1 2 3 4 5 6 7 8 9 10 11 12 13 14 15 16 17 18 19 20 21 22 23 24 25 26 27
000
ASUS45 KCYS 251410
RWRWY

WYOMING REGIONAL WEATHER ROUNDUP
NATIONAL WEATHER SERVICE CHEYENNE WY
700 AM MST SUN FEB 25 2018

NOTE:  "FAIR" INDICATES FEW OR NO CLOUDS BELOW 12,000 FEET
WITH NO SIGNIFICANT WEATHER AND/OR OBSTRUCTIONS TO VISIBILITY.

WYZ001-251500-
YELLOWSTONE NATIONAL PARK

CITY           SKY/WX    TMP DP  RH WIND       PRES   REMARKS
LK YELLOWSTONE   N/A      4  -1  80 CALM      29.79R
W YELLOWSTONE  NOT AVBL

$$
WYZ002>013-054>058-071-098>099-251500-
NORTHERN WYOMING

CITY           SKY/WX    TMP DP  RH WIND       PRES   REMARKS
JACKSON        FLURRIES  15   9  76 S20       29.87R WCI  -2
CODY           FAIR      24   4  42 W14G37    29.72S WCI  12
GREYBULL       FAIR      -5  -9  83 NW3       29.79S
WORLAND        FAIR       2  -2  83 VRB3      29.78S
SHERIDAN       FAIR      22   2  42 N3        29.72R
BUFFALO        FAIR      10  -3  55 NW6       29.69S WCI   0
GILLETTE       FAIR      15   5  64 SW15      29.72S WCI   0
HULETT         FAIR      19   9  63 MISG      29.73R
NEWCASTLE      FAIR       5  -4  66 NE5       29.78S WCI  -4

$$
WYZ014>020-022>026-101>103-251500-
CENTRAL WYOMING

CITY           SKY/WX    TMP DP  RH WIND       PRES   REMARKS
BIG PINEY      FAIR     -11 -14  86 E3        29.88R
PINEDALE       FAIR      -9 -15  77 NW3       29.88S
DUBOIS           N/A    N/A N/A N/A MISG        N/A
LANDER         FAIR      13  -3  49 S3        29.76F
RIVERTON       FAIR       6  -5  60 S6        29.78S WCI  -4
CASPER         FAIR      12   4  70 SW21      29.79R WCI  -7
DOUGLAS        FAIR      12   4  70 NW6       29.79R WCI   3

$$
WYZ021-027>030-104>119-251500-
SOUTHERN WYOMING

CITY           SKY/WX    TMP DP  RH WIND       PRES   REMARKS
EVANSTON       FAIR      11   8  88 SW16      29.97S WCI  -6
ROCK SPRINGS   FAIR      12   6  77 W26       29.91R WCI  -8
DIXON          CLOUDY    15   9  75 SW7       29.96R WCI   6
RAWLINS        CLOUDY    11   5  77 SW21      29.85R WCI  -8
SARATOGA       FAIR      14   7  73 SW18G26   29.85R WCI  -3
LARAMIE        FAIR      11   4  73 W20       29.77R WCI  -7
CHEYENNE       FAIR      17   4  56 W17G29    29.79R WCI   1
TORRINGTON     FAIR      25  10  53 W17G24    29.81R WCI  12
PINE BLUFFS    FAIR      14   0  52 NW6       29.85R WCI   5

$$




USA.gov is the U.S. government's official web portal to all federal, state and local government web resources and services.